619  
NZUS01 KOTX 230525  
RWROTX  
 
EASTERN WASHINGTON/NORTHERN IDAHO ROUNDUP  
NATIONAL WEATHER SERVICE, SPOKANE WA  
1000 PM PDT FRI SEP 22 2017  
 
NOTE: "FAIR" INDICATED FEW OR NO CLOUDS BELOW 12,000 FEET WITH NO  
SIGNIFICANT WEATHER AND/OR S TO VISIBILITY
.  
   
..NORTHEAST WASHINGTON AND NORTHERN IDAHO PANHANDLE
 
 
 
CITY SKY/WX TMP DP RH WIND PRES REMARKS
 
SPOKANE INTL PTCLDY 49 39 68 CALM 30.01S  
SPOKANE DOWNTO PTCLDY 46 39 76 NE5 30.01S  
COEUR D ALENE CLOUDY 48 41 76 S5 30.02S  
DEER PARK CLOUDY 42 37 82 CALM 30.01S  
SANDPOINT CLOUDY 48 36 61 CALM 30.02S  
BONNERS FERRY CLOUDY 46 36 66 CALM 30.02S  
   
..SOUTHEAST WASHINGTON AND SOUTHERN IDAHO PANHANDLE
 
 
 
CITY SKY/WX TMP DP RH WIND PRES REMARKS
 
WALLA WALLA MOCLDY 54 42 64 SE14 30.02F  
PULLMAN/MOSCOW MOCLDY 45 40 82 NE5 30.04S  
LEWISTON PTCLDY 50 43 77 NE5 30.03S  
LOWELL N/A 46 42 86 CALM 30.07R  
GRANGEVILLE CLOUDY 43 41 93 NW3 30.04S  
   
..COLUMBIA BASIN
 
 
 
CITY SKY/WX TMP DP RH WIND PRES REMARKS
 
EPHRATA MOCLDY 48 35 60 CALM 29.99S  
MOSES LAKE CLOUDY 55 39 54 S5 30.00S  
PASCO CLOUDY 59 46 62 SE5 30.02S  
RICHLAND CLOUDY 57 45 64 S3 30.02S  
HERMISTON MOCLDY 49 43 80 S6 30.02S  
PENDLETON PTCLDY 46 40 79 SE7 30.03S  
   
..EAST SLOPES CASCADES
 
 
 
CITY SKY/WX TMP DP RH WIND PRES REMARKS
 
THE DALLES MOCLDY 60 47 61 W6 30.02S  
YAKIMA CLOUDY 54 45 71 CALM 30.02S  
ELLENSBURG CLOUDY 55 43 63 NW6 30.01S  
STAMPEDE PASS FOG 44 43 96 VRB5 30.06S VSB 1/4  
WENATCHEE CLOUDY 57 39 51 NE6 29.99R  
OMAK MOCLDY 51 38 60 W5 29.99R  
CHELAN N/A 57 34 41 MISG N/A  
SUNNYSIDE CLOUDY 51 45 79 CALM 30.02R  
   
..SOUTHERN BRITISH COLUMBIA
 
 
 
CITY SKY/WX TMP DP RH WIND PRES REMARKS
 
PENTICTON CLOUDY 54 41 62 CALM 29.96S  
CRANBROOK CLOUDY 45 32 61 S3 30.01F  
OSOYOOS N/A 57 37 47 SE3 N/A  
CRESTON N/A 50 37 62 NE6 N/A  
   
..WESTERN MONTANA
 
 
 
CITY SKY/WX TMP DP RH WIND PRES REMARKS
 
LIBBY N/A 45 39 81 CALM 30.01F  
MISSOULA CLEAR 35 33 92 CALM 30.06R  
   
..NEIGHBORING CITIES
 
 
 
CITY SKY/WX TMP DP RH WIND PRES REMARKS
 
SEATTLE MOCLDY 62 46 55 S5 30.04S  
PORTLAND MOCLDY 57 52 83 E5 30.06R  
BOISE PTCLDY 44 39 82 CALM 30.00S  
GREAT FALLS CLOUDY 36 34 92 NW6 30.09S  
CALGARY CLOUDY 39 34 81 SE8 30.03F  
 
CLICK HERE TO GO TO PREVIOUS BULLETINS.

The Nexlab WA Page
The Nexlab ID Page Main Text Page